Lapse_Rate
9.7 9.1 6.6 5.2 6.5 6.5 6.5 6.5 6.5 6.5 6.5 6.2 6.7 6.1 6.4 5.9 6.5 6.5 6.6 7.3 6.4 3.3 3.7 4.1 4.5 4.5 4.9 5.1 5.3 5.6 5.8 6.0 6.1 6.0 6.6 6.5 6.4 6.3 6.6 6.9 6.9 7.0 7.3 6.5 7.1 6.8 6.1 5.5 5.5
9.4 9.5 6.8 6.6 6.5 6.5 6.5 6.5 6.5 6.5 6.3 6.5 6.3 6.5 6.4 6.5 3.6 5.3 6.7 8.0 5.8 5.2 3.8 4.4 4.4 4.4 4.7 5.0 5.1 5.2 5.6 5.9 6.0 6.2 6.2 6.4 6.4 6.3 6.6 7.2 6.9 7.1 6.8 6.3 6.4 5.8 5.2 4.6 4.8
9.1 9.3 6.1 6.5 6.5 6.5 6.5 6.5 6.5 6.5 6.4 6.2 6.3 6.6 6.5 6.5 6.4 6.7 7.9 7.9 6.3 6.1 5.6 4.8 4.6 4.4 4.6 5.0 5.2 5.5 5.5 5.9 5.9 6.1 6.2 6.4 6.5 6.9 6.7 7.2 6.6 6.1 6.0 5.3 5.2 4.9 4.7 4.2 4.3
8.3 7.6 6.8 6.5 6.5 6.5 6.5 6.5 6.5 6.5 6.5 6.6 6.3 6.5 6.2 7.0 7.2 7.5 7.8 7.3 6.2 6.4 6.7 4.2 4.8 4.6 4.5 4.7 5.0 6.0 5.6 5.8 6.0 5.8 6.1 6.3 6.3 6.6 6.5 6.6 6.1 6.1 5.6 5.3 5.0 4.7 4.3 4.3 4.3
7.8 7.0 6.5 6.5 6.5 6.5 6.5 6.5 6.6 6.5 6.5 6.5 6.7 6.3 5.8 6.8 6.7 7.2 7.5 5.7 6.5 7.0 6.6 5.3 4.9 4.8 4.4 4.5 5.1 5.9 5.8 5.7 5.8 5.8 6.0 6.3 6.3 6.0 5.4 5.5 6.1 6.2 5.4 5.2 4.8 4.6 4.4 4.2 4.4
6.6 6.7 6.5 6.5 6.5 6.5 6.5 6.7 6.5 6.5 6.6 6.8 6.6 6.1 5.9 6.8 6.0 6.5 7.7 6.8 7.0 6.0 6.7 5.8 5.0 4.9 4.7 4.6 5.4 5.9 5.8 6.0 5.7 5.9 6.2 6.2 5.7 5.8 5.6 5.0 5.3 5.3 5.5 5.2 4.9 4.7 4.6 4.3 4.4
6.5 6.5 6.5 6.5 6.5 6.5 6.5 6.8 6.4 6.5 6.6 6.6 7.7 6.5 5.7 6.3 6.3 6.2 7.3 8.2 7.7 6.1 6.9 6.0 5.3 4.9 4.6 5.2 5.2 5.8 6.1 5.9 5.8 6.0 6.3 6.0 4.8 5.8 6.1 5.4 5.4 5.8 6.4 5.2 4.9 4.8 4.5 4.5 4.4
7.0 6.5 6.5 6.5 6.5 6.5 6.5 6.7 6.7 6.7 6.7 7.8 7.9 6.5 6.3 6.3 6.4 6.4 5.8 7.3 6.8 6.2 7.0 5.8 5.6 4.9 5.6 5.5 4.9 5.8 5.9 5.9 5.9 6.1 6.5 5.5 4.4 5.5 5.4 6.9 5.7 5.6 6.1 5.0 4.7 4.5 4.4 4.3 4.2
7.4 6.5 6.5 6.5 6.5 6.5 6.5 6.5 7.2 7.0 6.6 7.4 7.7 7.5 5.9 7.0 6.3 6.5 6.8 6.4 6.0 7.0 7.3 6.7 6.1 6.1 6.1 5.8 5.1 5.2 5.3 5.5 5.5 5.5 5.8 4.5 4.3 6.2 6.1 7.1 6.9 4.8 4.5 4.6 4.7 4.5 4.1 3.9 4.0
6.6 6.5 6.5 6.5 6.5 6.5 6.5 6.4 6.8 6.7 6.8 7.0 7.3 7.3 6.8 7.3 5.8 6.2 6.6 6.0 5.9 6.3 7.4 8.3 7.5 6.5 6.1 6.0 5.3 5.3 4.9 5.4 5.4 5.6 5.2 4.3 4.8 5.9 6.4 6.6 7.3 5.0 4.6 4.5 4.6 4.3 4.2 4.3 4.4
6.5 6.5 6.5 6.5 6.7 6.5 6.5 6.6 7.2 6.6 6.5 6.8 6.9 7.1 6.7 4.5 6.5 5.8 6.0 6.2 5.9 5.7 7.2 8.4 8.3 6.8 5.8 5.7 5.4 4.9 5.3 5.4 5.9 6.0 5.0 6.4 5.9 6.3 6.2 5.5 6.2 5.9 4.4 4.1 4.0 3.9 4.2 4.6 5.8
6.5 6.6 6.6 6.7 7.0 6.5 6.5 7.0 6.6 6.8 6.7 7.4 7.3 7.9 7.1 6.1 5.0 6.4 5.2 3.3 3.3 3.0 6.3 8.0 8.3 7.4 6.2 5.7 4.6 5.0 5.7 6.6 7.1 5.4 5.8 8.1 6.8 6.5 5.6 5.7 6.6 4.6 4.3 4.4 4.5 4.6 5.5 6.0 8.5
6.5 6.5 6.8 6.8 7.0 6.9 7.1 6.6 6.6 6.7 6.6 7.8 7.3 7.6 6.8 6.9 5.0 5.7 4.0 2.7 2.8 1.5 2.4 2.6 8.0 7.2 6.7 6.0 5.5 6.0 6.1 6.9 6.8 5.9 7.4 8.0 7.3 6.2 5.7 4.9 5.0 5.1 5.5 5.5 5.2 5.8 6.7 7.0 7.3
6.6 6.4 6.6 6.7 6.8 6.9 6.5 6.5 6.7 6.8 7.3 7.2 7.6 7.4 6.6 5.5 3.4 4.1 3.8 3.3 2.2 1.8 2.0 4.2 2.3 7.4 7.3 7.0 7.5 7.4 7.6 8.0 7.7 6.8 7.4 7.6 7.3 6.8 6.1 5.1 5.4 5.9 6.7 8.0 7.2 6.8 6.2 5.9 7.1
6.8 6.5 6.5 6.5 6.6 6.5 6.8 6.5 6.5 6.9 6.8 7.2 7.3 7.5 7.1 6.1 5.5 5.2 4.2 2.8 2.0 2.5 0.6 3.1 4.8 7.1 6.4 7.3 7.7 7.1 6.8 7.1 6.9 6.7 7.7 7.8 7.4 7.1 6.2 5.8 5.4 6.4 7.4 7.5 7.4 7.2 7.4 6.3 7.3
6.5 6.5 6.5 6.5 6.5 6.6 6.6 6.5 6.5 5.6 6.7 6.9 6.6 6.5 7.4 4.0 5.2 6.3 4.8 3.3 2.1 1.0 0.7 3.1 4.4 6.9 6.8 7.2 7.5 7.4 7.0 6.6 6.2 7.0 7.7 7.9 7.4 7.2 5.9 4.8 4.4 6.1 6.4 6.4 6.0 5.8 6.1 6.1 6.1
6.5 6.5 6.5 6.5 6.5 6.5 6.5 6.5 6.5 6.9 6.8 6.7 6.6 7.0 6.3 5.2 6.3 5.9 3.9 2.3 1.4 2.0 1.4 3.7 4.0 5.8 6.7 6.9 7.7 8.1 7.6 7.4 7.2 7.4 7.1 7.8 7.7 7.0 5.6 4.9 5.4 6.4 5.8 5.5 5.7 5.5 5.5 6.0 6.4
6.5 6.5 6.5 6.5 6.5 6.5 6.5 6.5 6.5 6.6 6.8 6.1 5.7 6.6 5.4 5.9 6.5 5.5 3.7 2.0 2.1 2.9 3.0 2.6 3.6 5.8 6.5 6.2 6.1 6.0 7.1 7.1 7.0 6.8 7.1 7.3 6.7 6.2 5.9 6.0 6.5 7.2 5.7 5.8 5.9 6.6 6.4 6.5 6.3
6.5 6.5 6.5 6.5 6.5 6.5 6.5 6.5 6.5 6.5 6.5 6.4 6.6 6.0 4.4 4.7 6.1 5.3 3.6 3.2 3.6 3.8 2.0 1.3 3.2 5.7 5.2 4.9 5.7 6.0 6.2 6.2 6.4 6.0 7.2 6.8 6.5 6.4 6.3 6.6 7.3 7.1 6.1 6.2 6.8 6.7 6.6 6.3 6.0
6.5 6.5 6.5 6.5 6.5 6.5 6.5 6.5 6.5 6.5 6.5 6.0 5.6 4.8 6.0 5.8 5.3 5.9 4.7 4.7 5.2 6.1 6.1 4.8 4.7 6.4 5.6 5.7 5.8 5.3 5.1 5.5 6.0 6.0 6.5 6.9 7.3 6.6 6.1 6.3 6.6 6.9 6.4 6.7 6.9 7.0 6.2 5.8 5.2
6.5 6.5 6.5 6.5 6.5 6.5 6.5 6.5 6.5 6.5 6.4 6.2 6.1 6.0 5.1 5.1 6.3 5.5 5.1 5.2 5.7 5.5 5.1 5.4 4.5 6.3 6.1 5.4 4.9 4.8 5.3 5.0 5.5 5.5 5.3 5.7 6.9 6.7 7.0 7.0 6.5 5.7 5.4 5.4 5.3 5.6 6.3 5.6 4.9
6.5 6.5 6.5 6.5 6.5 6.5 6.5 6.5 6.5 6.5 6.5 6.5 5.8 5.2 5.0 4.9 4.7 5.0 5.2 5.1 5.3 5.0 4.5 5.5 3.5 4.3 4.8 5.6 5.9 5.4 5.8 5.6 4.9 4.5 4.4 4.6 5.7 5.6 6.1 6.3 5.5 3.9 3.8 3.4 3.2 3.5 4.0 4.5 4.1
6.5 6.5 6.5 6.5 6.5 6.5 6.5 6.5 6.5 6.5 6.5 6.5 6.5 5.4 5.4 5.2 5.1 5.4 4.8 4.9 4.3 4.1 4.4 4.4 4.8 4.8 4.7 4.4 4.1 3.6 3.5 3.1 4.8 4.7 4.2 4.0 3.9 4.9 5.0 4.7 4.5 4.0 3.5 3.2 2.7 2.7 3.5 2.9 3.3
6.5 6.5 6.5 6.5 6.5 6.5 6.5 6.5 6.5 6.5 6.5 6.5 6.5 5.8 5.7 5.6 4.4 5.1 4.4 3.9 4.4 4.1 4.2 4.2 3.9 4.3 4.6 4.6 4.9 4.6 4.2 3.8 3.5 3.5 3.4 3.3 3.3 3.2 3.5 3.7 3.7 3.8 3.2 3.5 3.0 2.9 2.9 2.9 3.1
6.5 6.5 6.5 6.5 6.5 6.5 6.5 6.5 6.5 6.5 6.5 6.5 6.5 5.6 5.9 5.1 5.1 4.4 5.3 5.8 4.3 3.6 4.3 4.5 4.7 4.9 4.8 5.0 4.5 4.7 4.4 3.4 3.8 3.0 2.4 2.6 2.1 1.4 1.9 2.6 3.0 3.0 3.7 4.1 4.1 3.8 3.7 3.7 3.9
6.5 6.5 6.5 6.5 6.5 6.5 6.5 6.5 6.5 6.5 6.1 6.2 6.4 6.2 6.4 5.4 5.0 4.9 5.4 4.4 3.7 4.4 5.4 5.1 4.7 5.0 4.5 4.6 4.4 4.4 4.3 3.8 4.3 3.6 3.2 2.3 2.2 2.7 1.9 1.2 1.2 2.4 2.5 3.9 4.1 3.8 3.9 3.7 3.4
6.5 6.5 6.5 6.5 6.5 6.5 6.5 6.5 6.5 6.5 6.5 6.4 6.2 6.4 5.8 5.5 5.8 4.8 4.6 4.3 3.8 3.3 4.6 5.7 5.7 5.9 5.3 4.4 4.7 4.8 4.8 4.5 4.3 3.7 3.2 2.5 2.4 3.9 3.6 2.0 1.0 1.9 3.1 3.9 3.8 2.8 2.4 2.4 3.1
6.5 6.5 6.5 6.5 6.5 6.5 6.5 6.5 6.5 6.5 6.5 6.5 6.5 5.6 5.5 6.6 5.9 5.2 5.3 5.2 4.7 4.3 4.3 3.4 5.5 5.6 5.4 4.9 4.6 4.6 4.3 5.0 4.1 4.0 3.7 3.1 1.8 2.2 2.9 1.6 2.8 2.8 3.3 3.0 2.9 2.2 2.1 2.8 3.2
6.5 6.5 6.5 6.5 6.5 6.5 6.5 6.5 6.5 6.5 6.5 6.5 6.5 5.4 5.5 5.9 6.0 5.4 4.5 4.0 4.0 4.4 4.6 4.4 4.4 4.4 4.5 4.8 5.0 4.1 3.4 4.3 3.7 3.8 4.3 2.6 3.7 3.5 2.6 3.2 3.1 2.7 2.3 2.1 1.5 1.3 1.3 2.6 2.5
6.5 6.5 6.5 6.5 6.5 6.5 6.5 6.5 6.5 6.5 6.5 6.1 5.8 5.6 5.8 6.0 5.9 6.0 5.7 5.0 4.4 4.6 4.8 5.1 5.5 5.6 5.9 3.6 3.2 3.3 2.9 2.9 2.9 2.8 2.9 2.2 2.2 1.3 1.2 2.0 2.0 1.6 2.2 2.4 2.4 3.1 2.5 2.6 2.4
Wind_Speed
9 10 5 2 4 6 24 34 14 18 26 15 21 13 20 15 8 6 10 10 23 22 26 26 25 22 20 19 18 24 23 23 23 22 22 22 22 21 22 21 20 20 22 22 20 21 21 20 17
8 4 2 1 5 12 29 21 26 14 15 20 17 24 24 16 4 8 7 14 23 20 24 24 26 23 20 19 18 24 24 24 23 23 23 23 22 23 22 20 19 21 22 21 20 20 18 17 15
7 4 2 3 10 25 34 9 15 16 16 17 22 18 23 1 6 12 11 18 24 19 21 23 26 24 21 20 19 24 25 24 23 23 23 23 22 23 23 20 18 21 22 20 19 17 16 16 15
3 3 1 6 22 35 31 12 16 19 18 19 19 17 8 6 5 8 10 20 21 20 19 25 24 23 22 21 20 22 24 24 23 23 23 23 22 24 23 21 20 19 19 18 17 16 15 15 14
3 2 8 10 24 25 24 17 26 24 23 23 21 15 9 8 7 13 10 20 19 18 18 22 24 22 22 22 21 21 23 24 24 24 24 23 21 23 23 22 18 17 17 16 17 15 15 15 13
4 3 7 18 24 26 21 19 19 26 19 25 21 9 9 13 12 8 10 17 17 18 15 20 21 20 20 22 22 20 23 24 25 25 24 23 21 21 23 24 19 17 15 18 16 14 14 14 12
10 9 14 17 19 21 25 19 13 16 17 27 16 16 3 8 11 12 12 14 15 18 15 15 17 18 18 22 21 21 23 24 26 25 25 22 21 20 22 21 22 16 16 17 15 13 13 12 10
8 6 18 16 19 24 23 19 22 18 18 22 19 7 11 1 12 14 10 13 14 16 15 14 15 16 15 19 21 22 23 25 26 24 25 23 21 20 22 21 23 15 15 16 14 13 12 11 8
7 4 8 20 20 22 17 4 15 8 9 21 18 14 15 19 15 14 13 12 14 13 16 14 14 13 16 17 19 23 25 24 23 25 26 23 15 20 21 14 24 18 15 13 12 11 11 10 8
7 5 14 15 17 18 9 9 16 9 12 21 22 20 21 21 18 19 18 16 18 16 15 14 14 14 15 16 20 20 21 19 18 20 21 16 17 16 16 14 22 20 15 13 11 9 10 11 10
10 14 14 15 15 7 2 9 7 6 17 20 21 23 9 4 21 20 20 18 17 19 12 15 14 17 15 12 15 15 15 15 16 20 19 17 18 18 14 11 13 16 15 11 10 8 8 11 10
15 16 18 17 12 5 9 4 5 9 15 18 22 19 11 19 18 22 17 16 12 14 3 13 13 16 16 12 8 13 9 14 12 18 20 17 13 11 10 11 9 13 13 12 12 10 13 11 1
14 17 10 6 9 7 6 8 8 17 19 17 20 25 16 10 20 16 13 14 10 15 12 15 8 7 15 15 10 10 7 10 17 18 17 17 13 6 14 12 11 12 15 12 12 12 10 6 8
6 13 14 7 11 10 12 10 7 16 17 17 18 18 10 5 17 12 11 13 12 14 13 8 13 13 9 10 14 11 11 13 16 13 13 20 14 9 9 8 9 11 16 11 10 5 5 6 7
8 9 10 12 14 8 11 8 14 22 9 11 16 11 12 10 11 8 9 9 13 10 14 4 9 12 14 11 10 6 6 10 8 9 15 17 16 12 9 5 4 7 10 8 7 7 7 2 3
5 7 7 10 14 5 6 11 6 8 10 13 12 16 13 5 20 20 9 8 10 8 13 3 11 16 12 12 9 7 6 7 7 10 12 15 15 16 10 4 4 10 9 6 3 1 2 1 2
7 5 12 11 14 3 6 8 3 1 4 6 11 15 9 13 13 10 8 8 9 12 16 11 9 12 14 12 12 12 10 7 9 11 11 13 15 16 10 6 7 12 7 3 3 2 3 3 2
6 7 13 9 11 10 11 15 11 5 6 8 13 14 16 15 10 9 7 6 7 5 11 13 8 11 18 10 9 6 8 8 9 9 12 15 13 15 11 8 8 11 4 4 3 3 3 2 3
14 14 15 11 9 5 13 14 5 7 6 13 15 14 14 13 4 6 5 5 2 1 1 10 7 14 9 8 7 9 9 8 6 3 11 14 14 15 9 5 5 8 5 5 5 3 4 2 2
14 17 12 4 9 3 10 12 2 9 10 10 9 7 12 18 12 7 7 6 7 6 10 6 14 16 9 8 7 5 5 6 8 7 10 13 14 16 11 5 4 5 4 5 5 5 3 2 2
13 12 10 9 1 7 9 9 6 9 11 10 5 5 9 16 16 10 7 7 6 6 7 7 6 17 14 11 7 5 5 4 4 4 4 5 11 10 9 9 4 4 3 1 3 2 5 3 1
10 4 14 11 9 3 7 5 3 7 9 6 6 6 11 14 14 12 11 10 9 6 7 7 7 2 2 14 12 14 10 9 4 4 4 4 8 8 8 6 7 5 3 4 3 2 2 3 3
6 12 13 10 8 7 4 2 10 5 8 7 7 7 5 11 14 13 9 14 7 8 9 8 8 3 5 4 7 9 8 5 6 5 7 6 5 8 7 4 3 4 1 4 5 5 4 3 3
12 12 12 8 2 1 5 3 6 4 4 6 8 9 7 7 9 11 6 12 11 4 4 7 11 10 3 3 3 7 8 6 7 8 7 6 5 4 5 8 6 5 4 3 4 5 6 5 4
5 6 3 2 1 3 3 2 4 8 3 4 14 4 10 7 5 4 11 11 14 16 11 9 15 12 8 7 9 7 4 5 5 6 4 4 4 4 8 7 7 5 5 5 6 6 7 6 7
9 3 2 2 3 2 4 5 6 8 9 8 6 5 4 8 8 7 6 6 11 14 13 12 14 20 16 10 10 5 5 6 6 6 4 5 4 4 6 9 8 8 6 10 9 6 5 6 7
6 4 3 4 3 1 5 6 9 14 15 9 9 4 8 8 5 8 8 8 9 9 11 15 14 12 12 14 12 12 9 8 9 8 6 4 5 5 6 8 6 4 6 7 6 4 4 5 5
5 5 4 3 5 3 8 7 6 12 10 11 13 10 8 9 9 7 5 3 6 7 7 6 12 14 15 15 14 14 13 12 11 9 9 9 1 2 4 4 6 5 5 5 7 5 6 5 4
5 4 3 2 1 3 2 2 7 8 8 8 9 9 9 8 7 7 7 6 6 5 5 9 10 8 8 13 14 13 12 14 12 11 10 5 7 7 4 5 6 7 8 7 6 6 6 6 5
9 6 3 2 4 2 2 1 10 8 8 9 8 8 6 6 7 6 5 5 3 3 3 5 4 5 2 4 6 6 5 6 7 7 6 8 8 6 8 9 9 8 7 6 6 6 5 7 6
Wind_Direction
280 269 99 66 199 240 252 238 253 235 240 221 228 241 243 246 250 247 155 160 136 140 148 152 155 157 158 157 155 151 151 151 149 147 145 141 138 136 136 131 131 129 120 117 113 100 97 99 97
291 253 77 357 220 212 244 233 235 243 262 235 217 235 255 258 88 121 156 141 136 141 146 154 153 155 157 157 156 151 152 152 152 152 149 142 141 137 136 130 136 126 118 115 109 104 105 102 97
245 257 140 192 231 223 241 202 254 262 260 263 243 212 239 137 125 142 141 136 136 138 150 150 152 155 157 157 160 157 154 154 155 152 151 144 144 140 133 130 126 118 113 114 111 113 109 105 104
269 192 194 238 231 242 257 301 304 292 261 261 266 242 199 73 151 140 143 124 133 139 150 146 153 157 154 157 161 158 157 154 154 153 151 145 140 137 131 126 118 119 118 119 121 116 112 109 107
266 265 229 229 244 259 260 256 265 282 291 296 268 254 174 109 71 127 160 128 138 144 136 147 154 159 149 156 161 157 161 154 154 154 150 142 141 137 127 123 119 114 116 129 126 120 117 112 109
222 229 238 230 239 243 252 267 274 267 308 290 292 232 203 130 120 129 132 134 142 127 141 145 154 156 155 157 161 157 160 154 152 147 144 137 138 138 136 126 125 122 128 127 123 121 118 113 112
236 225 237 255 262 254 254 234 257 283 298 289 304 310 229 163 129 144 132 137 135 132 145 147 155 156 158 155 159 154 157 155 148 144 138 137 135 138 131 140 126 131 136 127 126 125 122 118 117
230 251 253 255 252 256 266 252 222 250 282 287 283 251 276 160 148 146 119 147 139 141 144 149 156 151 154 153 152 151 149 148 142 138 131 145 135 139 145 139 128 132 123 128 130 131 129 128 125
241 230 238 244 254 261 259 320 286 235 295 295 285 276 265 272 176 151 151 146 139 152 148 154 157 149 145 144 145 139 138 132 129 127 136 144 137 148 152 137 135 128 121 122 131 133 135 136 136
203 233 247 254 250 258 276 303 262 255 272 297 291 279 272 250 186 171 166 155 155 151 154 156 161 146 141 138 140 135 132 134 136 134 144 144 148 153 152 150 143 132 131 133 137 143 154 154 162
213 238 256 258 284 231 227 302 319 270 261 268 270 273 315 350 205 192 165 161 161 155 156 157 166 146 139 140 136 135 139 136 140 137 165 154 155 158 141 139 137 131 142 144 153 169 194 208 207
232 233 244 260 256 245 242 263 256 232 265 274 259 266 280 292 311 193 162 132 118 80 185 157 176 150 144 144 141 145 147 150 142 167 186 153 138 150 137 155 162 145 170 169 183 190 218 238 224
255 242 261 217 210 231 217 240 256 259 263 248 243 266 249 252 285 196 146 126 137 98 19 351 178 170 152 150 148 154 160 166 159 180 191 151 151 153 147 164 180 167 187 187 192 198 198 185 219
267 256 243 228 225 217 221 230 206 256 265 261 242 271 264 248 285 127 156 152 137 112 109 303 337 156 144 154 159 165 174 152 148 175 153 130 148 140 147 164 173 174 185 182 184 187 179 203 196
267 278 238 214 223 237 230 251 250 262 239 263 252 269 267 232 247 199 197 181 165 151 110 34 289 210 156 165 146 146 140 127 135 137 136 136 149 141 139 136 145 163 167 182 194 203 190 174 179
257 256 271 230 216 213 258 247 250 332 207 219 259 267 260 273 248 210 206 168 162 153 120 116 278 217 156 146 150 137 141 125 124 138 145 149 151 147 140 143 153 162 175 176 153 115 63 139 169
214 245 222 268 200 206 208 299 53 359 277 224 256 255 243 236 177 184 194 164 145 161 137 174 284 239 171 162 158 151 141 140 139 145 148 154 152 153 150 148 170 169 160 147 160 167 176 196 214
295 277 268 221 186 220 235 258 273 256 213 245 252 244 180 165 188 174 183 147 123 160 150 136 214 241 169 165 141 133 133 140 141 147 162 153 155 159 168 169 169 150 147 169 189 169 202 172 193
289 291 287 276 130 221 242 253 255 257 252 229 241 236 156 141 202 159 148 107 98 305 12 135 205 227 129 139 153 155 151 148 143 139 159 160 162 162 182 164 164 158 160 182 179 182 174 234 15
287 288 304 114 141 212 282 285 266 216 252 213 229 180 159 147 169 171 142 151 168 176 175 196 193 185 143 138 149 145 136 146 157 168 185 166 160 166 173 172 175 171 156 179 174 174 151 169 142
295 332 335 335 182 219 282 278 218 186 240 246 195 160 160 158 157 156 146 136 135 120 91 68 25 187 159 139 125 106 111 106 107 132 135 153 142 151 155 169 152 131 122 137 109 134 148 140 260
311 338 320 326 324 325 229 295 243 210 227 171 172 152 154 157 149 156 162 125 130 111 103 84 54 52 233 154 148 152 156 154 152 129 127 123 121 129 138 149 141 141 130 167 162 140 209 128 227
286 345 308 302 303 328 269 262 309 154 249 168 159 155 172 139 147 166 173 147 152 150 159 150 145 270 259 58 173 148 153 152 128 117 112 113 107 111 127 130 146 138 170 167 185 197 184 187 152
285 297 300 278 257 306 334 16 341 338 297 297 159 154 164 180 163 171 167 133 144 183 184 158 159 193 147 170 33 130 142 133 142 148 150 160 177 173 159 161 167 169 139 206 219 195 177 182 179
340 307 308 354 21 183 287 49 20 18 56 25 17 187 153 161 157 180 170 165 168 182 203 178 180 180 180 174 190 197 171 136 173 164 148 160 187 195 183 172 170 157 170 207 212 201 199 210 219
315 339 288 333 13 12 261 51 346 40 21 69 87 38 91 146 161 176 158 155 181 179 191 192 193 185 186 189 198 198 191 174 170 172 174 188 203 191 198 186 184 174 173 228 224 218 205 191 202
327 22 308 320 245 261 120 90 42 16 8 25 113 23 34 27 125 174 166 169 179 181 198 187 185 188 184 183 195 212 211 180 181 183 187 211 203 197 202 196 120 139 179 214 209 187 166 157 158
39 354 26 349 3 337 93 70 10 359 7 0 31 38 42 29 6 65 98 140 187 183 165 177 190 195 193 197 195 211 200 203 190 202 221 221 317 349 182 107 150 148 176 180 183 159 175 154 141
4 15 32 195 337 334 72 59 33 14 4 30 41 41 35 22 14 27 29 28 24 30 160 166 191 206 224 200 199 208 204 210 195 208 216 228 229 222 171 174 163 172 176 167 177 154 145 139 133
47 42 43 8 356 40 337 59 31 36 33 32 51 58 53 47 43 42 46 35 13 348 46 105 92 124 129 165 143 158 145 135 140 154 151 153 165 149 150 153 157 176 166 151 137 129 127 134 152